D59 EBZR-EBKH

Flight info

Callsign D59
Flight time 0h 52m
Altitude 5000
Route DCT
Aircraft LS4/L-SFG/C

Departure

Time 2026-04-22 15:59
Airport Oostmalle Airfield (EBZR)

Arrival

Time 2026-04-22 16:51
Airport Balen-Keiheuvel Airfield (EBKH)
Time Latitude Longitude Altitude Speed Heading
2026-04-22 15:56 51.27151 4.76672 61 ft 0 kts 228°
2026-04-22 15:58 51.27131 4.76636 57 ft 19 kts 229°
2026-04-22 15:58 51.26939 4.76296 52 ft 57 kts 229°
2026-04-22 15:58 51.27151 4.76672 60 ft 0 kts 228°
2026-04-22 15:59 51.27069 4.76525 55 ft 39 kts 231°
2026-04-22 15:59 51.26876 4.76171 85 ft 0 kts 248°
2026-04-22 15:59 51.26840 4.76012 1484 ft 61 kts 251°
2026-04-22 16:00 51.26992 4.75483 1517 ft 60 kts 345°
2026-04-22 16:00 51.27351 4.75798 1516 ft 64 kts 63°
2026-04-22 16:00 51.27268 4.76468 1588 ft 65 kts 147°
2026-04-22 16:00 51.26925 4.76336 1796 ft 53 kts 253°
2026-04-22 16:01 51.27113 4.75938 2004 ft 54 kts 358°
2026-04-22 16:01 51.27332 4.76378 2124 ft 62 kts 97°
2026-04-22 16:01 51.27046 4.76677 2334 ft 52 kts 210°
2026-04-22 16:01 51.27065 4.76247 2554 ft 50 kts 340°
2026-04-22 16:02 51.27295 4.76620 2697 ft 59 kts 105°
2026-04-22 16:02 51.26976 4.76805 2848 ft 53 kts 213°
2026-04-22 16:02 51.26962 4.76308 2891 ft 53 kts 320°
2026-04-22 16:02 51.27245 4.76534 3037 ft 57 kts 86°
2026-04-22 16:03 51.26990 4.76857 3176 ft 49 kts 206°
2026-04-22 16:03 51.26947 4.76400 3152 ft 53 kts 313°
2026-04-22 16:03 51.27272 4.76494 3297 ft 56 kts 59°
2026-04-22 16:03 51.27262 4.76881 3373 ft 56 kts 127°
2026-04-22 16:04 51.26931 4.76967 3425 ft 53 kts 223°
2026-04-22 16:04 51.26962 4.76461 3400 ft 55 kts 324°
2026-04-22 16:04 51.27319 4.76549 3541 ft 58 kts 47°
2026-04-22 16:04 51.27323 4.77149 3661 ft 58 kts 135°
2026-04-22 16:05 51.26996 4.77152 3636 ft 53 kts 240°
2026-04-22 16:05 51.27128 4.76683 3632 ft 57 kts 343°
2026-04-22 16:05 51.27468 4.76959 3743 ft 61 kts 71°
2026-04-22 16:05 51.27288 4.77465 3722 ft 58 kts 178°
2026-04-22 16:06 51.26950 4.77823 3584 ft 71 kts 123°
2026-04-22 16:06 51.26690 4.78484 3585 ft 69 kts 125°
2026-04-22 16:06 51.26396 4.79102 3662 ft 62 kts 130°
2026-04-22 16:06 51.26096 4.79668 3692 ft 71 kts 130°
2026-04-22 16:07 51.25780 4.80277 3682 ft 73 kts 127°
2026-04-22 16:07 51.25495 4.80917 3628 ft 74 kts 129°
2026-04-22 16:07 51.25197 4.81542 3732 ft 69 kts 126°
2026-04-22 16:07 51.24919 4.82163 3809 ft 68 kts 126°
2026-04-22 16:08 51.24621 4.82782 3864 ft 70 kts 131°
2026-04-22 16:08 51.24325 4.83343 4045 ft 57 kts 122°
2026-04-22 16:08 51.24038 4.83799 3986 ft 63 kts 123°
2026-04-22 16:08 51.23761 4.84222 3936 ft 63 kts 123°
2026-04-22 16:09 51.23397 4.84577 4028 ft 65 kts 193°
2026-04-22 16:09 51.23254 4.83897 4027 ft 71 kts 299°
2026-04-22 16:09 51.23582 4.83626 4158 ft 46 kts 33°
2026-04-22 16:09 51.23655 4.83957 4302 ft 41 kts 122°
2026-04-22 16:10 51.23332 4.83830 4211 ft 86 kts 245°
2026-04-22 16:10 51.23428 4.83074 4401 ft 69 kts 339°
2026-04-22 16:10 51.23790 4.83134 4524 ft 46 kts 58°
2026-04-22 16:10 51.23734 4.83518 4469 ft 49 kts 124°
2026-04-22 16:11 51.23427 4.83952 4542 ft 61 kts 130°
2026-04-22 16:11 51.23149 4.84439 4576 ft 60 kts 120°
2026-04-22 16:11 51.22855 4.85042 4496 ft 73 kts 123°
2026-04-22 16:11 51.22513 4.85681 4378 ft 78 kts 123°
2026-04-22 16:12 51.22217 4.86369 4418 ft 65 kts 114°
2026-04-22 16:12 51.21949 4.86879 4591 ft 59 kts 158°
2026-04-22 16:12 51.21619 4.86343 4573 ft 81 kts 264°
2026-04-22 16:12 51.21825 4.85583 4509 ft 77 kts 338°
2026-04-22 16:13 51.22243 4.85515 4562 ft 52 kts 41°
2026-04-22 16:13 51.22324 4.85943 4514 ft 47 kts 116°
2026-04-22 16:13 51.22064 4.86343 4377 ft 60 kts 122°
2026-04-22 16:13 51.21733 4.86973 4204 ft 78 kts 122°
2026-04-22 16:14 51.21365 4.86916 4356 ft 74 kts 233°
2026-04-22 16:14 51.21472 4.86205 4348 ft 65 kts 340°
2026-04-22 16:14 51.21784 4.86279 4273 ft 43 kts 78°
2026-04-22 16:14 51.21701 4.86702 4330 ft 34 kts 85°
2026-04-22 16:15 51.21523 4.87112 4251 ft 56 kts 124°
2026-04-22 16:15 51.21188 4.87688 4082 ft 72 kts 118°
2026-04-22 16:15 51.20921 4.88133 4120 ft 67 kts 121°
2026-04-22 16:15 51.20573 4.88147 4419 ft 71 kts 231°
2026-04-22 16:16 51.20617 4.87368 4399 ft 72 kts 308°
2026-04-22 16:16 51.20984 4.86964 4381 ft 58 kts 16°
2026-04-22 16:16 51.21144 4.87341 4357 ft 45 kts 102°
2026-04-22 16:16 51.20885 4.87632 4346 ft 57 kts 158°
2026-04-22 16:17 51.20681 4.87868 4304 ft 41 kts 73°
2026-04-22 16:17 51.20699 4.88374 4300 ft 56 kts 95°
2026-04-22 16:17 51.20591 4.88949 4428 ft 49 kts 102°
2026-04-22 16:17 51.20464 4.89424 4472 ft 49 kts 121°
2026-04-22 16:18 51.20111 4.89275 4656 ft 70 kts 231°
2026-04-22 16:18 51.20165 4.88557 4627 ft 69 kts 328°
2026-04-22 16:18 51.20508 4.88540 4589 ft 42 kts 60°
2026-04-22 16:18 51.20414 4.88899 4564 ft 51 kts 152°
2026-04-22 16:19 51.20095 4.88497 4519 ft 71 kts 267°
2026-04-22 16:19 51.20358 4.88158 4449 ft 46 kts 65°
2026-04-22 16:19 51.20245 4.88682 4286 ft 63 kts 110°
2026-04-22 16:19 51.20029 4.89333 4337 ft 53 kts 112°
2026-04-22 16:20 51.19818 4.89792 4351 ft 53 kts 114°
2026-04-22 16:20 51.19640 4.90306 4207 ft 67 kts 110°
2026-04-22 16:20 51.19396 4.91010 4109 ft 73 kts 110°
2026-04-22 16:20 51.19175 4.91618 4206 ft 56 kts 117°
2026-04-22 16:21 51.18863 4.91989 4299 ft 64 kts 172°
2026-04-22 16:21 51.18558 4.91466 4335 ft 70 kts 267°
2026-04-22 16:21 51.18790 4.90869 4249 ft 59 kts 356°
2026-04-22 16:21 51.19025 4.91085 4398 ft 40 kts 94°
2026-04-22 16:22 51.19326 4.91695 4269 ft 49 kts 77°
2026-04-22 16:22 51.19365 4.92218 4264 ft 52 kts 83°
2026-04-22 16:22 51.19327 4.92739 4340 ft 49 kts 136°
2026-04-22 16:23 51.19404 4.92113 4374 ft 49 kts 50°
2026-04-22 16:23 51.19294 4.92508 4350 ft 59 kts 159°
2026-04-22 16:23 51.18945 4.92067 4406 ft 73 kts 262°
2026-04-22 16:24 51.19198 4.91521 4369 ft 59 kts 26°
2026-04-22 16:24 51.18805 4.92173 4449 ft 60 kts 129°
2026-04-22 16:24 51.18484 4.92586 4521 ft 50 kts 133°
2026-04-22 16:25 51.18216 4.93031 4437 ft 58 kts 96°
2026-04-22 16:25 51.18071 4.94162 4377 ft 61 kts 95°
2026-04-22 16:25 51.17976 4.94735 4519 ft 49 kts 105°
2026-04-22 16:26 51.17728 4.95122 4664 ft 62 kts 183°
2026-04-22 16:26 51.17507 4.94747 4617 ft 78 kts 247°
2026-04-22 16:26 51.17638 4.94004 4577 ft 65 kts 340°
2026-04-22 16:26 51.17929 4.94114 4551 ft 42 kts 86°
2026-04-22 16:27 51.17712 4.94457 4504 ft 58 kts 158°
2026-04-22 16:27 51.17332 4.94112 4459 ft 74 kts 236°
2026-04-22 16:27 51.17049 4.93491 4409 ft 65 kts 187°
2026-04-22 16:27 51.16749 4.93708 4292 ft 53 kts 89°
2026-04-22 16:28 51.16714 4.94159 4387 ft 46 kts 92°
2026-04-22 16:28 51.16668 4.94698 4364 ft 46 kts 95°
2026-04-22 16:28 51.16600 4.95320 4297 ft 47 kts 97°
2026-04-22 16:28 51.16526 4.95817 4192 ft 59 kts 99°
2026-04-22 16:29 51.16435 4.96390 4254 ft 54 kts 98°
2026-04-22 16:29 51.16428 4.96930 4373 ft 50 kts 114°
2026-04-22 16:29 51.16044 4.97002 4315 ft 75 kts 201°
2026-04-22 16:29 51.15915 4.96251 4390 ft 73 kts 313°
2026-04-22 16:30 51.16159 4.96021 4453 ft 57 kts 19°
2026-04-22 16:30 51.16348 4.96446 4617 ft 44 kts 106°
2026-04-22 16:30 51.16029 4.96615 4615 ft 66 kts 178°
2026-04-22 16:30 51.15918 4.95955 4703 ft 70 kts 319°
2026-04-22 16:31 51.16255 4.95845 4846 ft 42 kts 53°
2026-04-22 16:31 51.16236 4.96251 4912 ft 49 kts 132°
2026-04-22 16:31 51.15858 4.96166 4911 ft 73 kts 211°
2026-04-22 16:31 51.15812 4.95409 4987 ft 75 kts 322°
2026-04-22 16:32 51.16181 4.95222 4964 ft 48 kts 47°
2026-04-22 16:32 51.16144 4.95594 4936 ft 49 kts 144°
2026-04-22 16:32 51.15771 4.95434 5036 ft 71 kts 223°
2026-04-22 16:32 51.15847 4.94735 4991 ft 67 kts 337°
2026-04-22 16:33 51.16156 4.94815 4958 ft 37 kts 81°
2026-04-22 16:33 51.15932 4.95085 4864 ft 57 kts 160°
2026-04-22 16:33 51.15671 4.95418 4766 ft 54 kts 110°
2026-04-22 16:33 51.15509 4.95937 4861 ft 51 kts 102°
2026-04-22 16:34 51.15434 4.96541 4881 ft 54 kts 97°
2026-04-22 16:34 51.15360 4.97090 4867 ft 49 kts 100°
2026-04-22 16:34 51.15295 4.97468 4888 ft 53 kts 96°
2026-04-22 16:34 51.15281 4.97570 4923 ft 51 kts 99°
2026-04-22 16:35 51.15180 4.98144 4959 ft 52 kts 101°
2026-04-22 16:35 51.15052 4.98722 5019 ft 57 kts 103°
2026-04-22 16:35 51.14921 4.99290 5044 ft 55 kts 107°
2026-04-22 16:35 51.14749 4.99857 5087 ft 58 kts 108°
2026-04-22 16:36 51.14583 5.00456 5070 ft 62 kts 109°
2026-04-22 16:36 51.14411 5.01075 5057 ft 55 kts 108°
2026-04-22 16:36 51.14221 5.01691 4923 ft 66 kts 107°
2026-04-22 16:36 51.14065 5.02368 4848 ft 66 kts 104°
2026-04-22 16:37 51.13926 5.03063 4801 ft 63 kts 101°
2026-04-22 16:37 51.13815 5.03683 4690 ft 70 kts 99°
2026-04-22 16:38 51.13784 5.03915 4724 ft 62 kts 98°
2026-04-22 16:39 51.13698 5.04618 4630 ft 67 kts 97°
2026-04-22 16:39 51.13609 5.05358 4549 ft 68 kts 96°
2026-04-22 16:39 51.13592 5.06058 4541 ft 61 kts 75°
2026-04-22 16:39 51.13610 5.06580 4628 ft 56 kts 82°
2026-04-22 16:40 51.13700 5.07222 4663 ft 62 kts 78°
2026-04-22 16:40 51.13825 5.07929 4524 ft 70 kts 72°
2026-04-22 16:40 51.14061 5.09153 4698 ft 52 kts 77°
2026-04-22 16:41 51.14192 5.09693 4669 ft 54 kts 70°
2026-04-22 16:41 51.14382 5.10282 4555 ft 65 kts 60°
2026-04-22 16:41 51.14621 5.10870 4530 ft 63 kts 61°
2026-04-22 16:41 51.14901 5.11465 4577 ft 60 kts 58°
2026-04-22 16:42 51.14880 5.11904 4736 ft 56 kts 137°
2026-04-22 16:42 51.14456 5.11730 4699 ft 78 kts 224°
2026-04-22 16:42 51.14389 5.10916 4634 ft 74 kts 318°
2026-04-22 16:42 51.14667 5.10978 4586 ft 42 kts 82°
2026-04-22 16:43 51.14705 5.11461 4698 ft 47 kts 90°
2026-04-22 16:43 51.14381 5.11603 4811 ft 68 kts 206°
2026-04-22 16:43 51.14425 5.10983 4740 ft 57 kts
2026-04-22 16:43 51.14654 5.11262 4885 ft 43 kts 64°
2026-04-22 16:44 51.14816 5.11662 5040 ft 40 kts 80°
2026-04-22 16:44 51.14548 5.11813 4995 ft 65 kts 197°
2026-04-22 16:44 51.14403 5.11139 4926 ft 70 kts 298°
2026-04-22 16:44 51.14727 5.10957 4830 ft 50 kts 63°
2026-04-22 16:45 51.14845 5.11478 4909 ft 44 kts 76°
2026-04-22 16:45 51.15001 5.11931 4904 ft 54 kts 57°
2026-04-22 16:45 51.15295 5.12437 4824 ft 66 kts 53°
2026-04-22 16:45 51.15602 5.12995 4710 ft 73 kts 54°
2026-04-22 16:46 51.15937 5.13628 4774 ft 63 kts 53°
2026-04-22 16:46 51.16093 5.13977 4610 ft 69 kts 71°
2026-04-22 16:46 51.16246 5.14263 4677 ft 61 kts 51°
2026-04-22 16:46 51.16550 5.14735 4555 ft 78 kts 51°
2026-04-22 16:47 51.16633 5.15403 4050 ft 63 kts 86°
2026-04-22 16:47 51.16506 5.15647 4316 ft 26 kts 65°
2026-04-22 16:47 51.16211 5.15384 4272 ft 49 kts 158°
2026-04-22 16:47 51.16533 5.16157 3422 ft 123 kts 47°
2026-04-22 16:48 51.16635 5.16254 3662 ft 9 kts 227°
2026-04-22 16:48 51.16675 5.16283 3770 ft 56 kts 230°
2026-04-22 16:48 51.16680 5.16202 3640 ft 35 kts 218°
2026-04-22 16:48 51.17015 5.16739 3424 ft 80 kts 47°
2026-04-22 16:49 51.17311 5.17508 3572 ft 81 kts 62°
2026-04-22 16:49 51.17667 5.17151 3666 ft 93 kts 285°
2026-04-22 16:49 51.17792 5.16338 3928 ft 72 kts 297°
2026-04-22 16:49 51.18069 5.15796 3801 ft 43 kts 350°
2026-04-22 16:50 51.18357 5.15903 3208 ft 41 kts 12°
2026-04-22 16:50 51.18524 5.16220 2652 ft 35 kts 47°
2026-04-22 16:50 51.18485 5.16624 2254 ft 43 kts 94°
2026-04-22 16:50 51.18400 5.17066 1874 ft 41 kts 97°
2026-04-22 16:51 51.18303 5.17646 1546 ft 68 kts 98°
2026-04-22 16:51 51.18213 5.18370 1482 ft 64 kts 88°
2026-04-22 16:51 51.18304 5.19052 1387 ft 67 kts 69°
2026-04-22 16:51 51.18424 5.19595 1251 ft 40 kts 67°
2026-04-22 16:52 51.18573 5.20170 1091 ft 59 kts 67°
2026-04-22 16:52 51.18711 5.20705 1145 ft 44 kts 66°
2026-04-22 16:52 51.18779 5.21014 1127 ft 43 kts 68°
2026-04-22 16:52 51.18902 5.21693 1053 ft 50 kts 69°
2026-04-22 16:53 51.18973 5.22103 989 ft 58 kts 73°
2026-04-22 16:53 51.19094 5.22694 986 ft 51 kts 66°
2026-04-22 16:53 51.19167 5.23164 1050 ft 44 kts 101°
2026-04-22 16:53 51.18854 5.23356 818 ft 57 kts 160°
2026-04-22 16:54 51.18462 5.23235 416 ft 67 kts 211°
2026-04-22 16:54 51.18252 5.22629 145 ft 61 kts 244°
2026-04-22 16:54 51.18108 5.22139 129 ft 34 kts 243°
2026-04-22 16:54 51.18026 5.21882 130 ft 17 kts 244°
2026-04-22 16:55 51.18006 5.21808 126 ft 0 kts 248°